CW1490 Weather Reports


Display with metric or nautical units.
time (UTC)temp
F
wind
direction
speed
MPH
gust
MPH
rain 1hr
in
rain 24hr
in
rain mn
in
humidity
%
barometer
mb
20171215213510 22 218 2.0 5.0 0.00 0.00 0.00 72 1012.7
20171215211949 22 212 2.0 5.0 0.00 0.00 0.00 71 1012.9
20171215210454 22 222 3.0 8.0 0.00 0.00 0.00 71 1013.1
20171215204940 22 177 4.0 8.0 0.00 0.00 0.00 71 1013.5
20171215203435 22 168 4.0 6.0 0.00 0.00 0.00 71 1013.8
20171215201930 23 187 3.0 8.0 0.00 0.00 0.00 71 1013.9
20171215200501 23 217 3.0 5.0 0.00 0.00 0.00 70 1014.1
20171215194924 23 214 3.0 6.0 0.00 0.00 0.00 70 1014.2
20171215193418 23 189 4.0 7.0 0.00 0.00 0.00 70 1014.4
20171215191913 23 222 4.0 7.0 0.00 0.00 0.00 69 1014.5
20171215190432 23 173 3.0 5.0 0.00 0.00 0.00 69 1014.6
20171215184926 23 216 1.0 3.0 0.00 0.00 0.00 70 1014.7
20171215183405 23 226 2.0 6.0 0.00 0.00 0.00 70 1014.8
20171215181859 22 193 3.0 6.0 0.00 0.00 0.00 71 1015.1
20171215180353 22 208 4.0 7.0 0.00 0.00 0.00 71 1015.3
20171215174922 22 203 4.0 6.0 0.00 0.00 0.00 71 1015.6
20171215173343 21 212 3.0 4.0 0.00 0.00 0.00 71 1015.9
20171215171844 21 206 2.0 4.0 0.00 0.00 0.00 71 1016.1
20171215170340 20 127 1.0 4.0 0.00 0.00 0.00 73 1016.4
20171215164831 19 206 1.0 3.0 0.00 0.00 0.00 77 1016.8
20171215163328 17 179 0.0 2.0 0.00 0.00 0.00 78 1017.0
20171215162036 17 179 0.0 3.0 0.00 0.00 0.00 79 1017.4
20171215160318 16 105 0.0 3.0 0.00 0.00 0.00 82 1017.7
20171215154817 15 175 0.0 1.0 0.00 0.00 0.00 85 1018.3
20171215153320 13 175 0.0 2.0 0.00 0.00 0.00 86 1018.6
20171215151807 13 176 0.0 1.0 0.00 0.00 0.00 87 1018.8
20171215150331 11 176 1.0 3.0 0.00 0.00 0.00 87 1019.1
20171215144817 11 160 1.0 3.0 0.00 0.00 0.00 88 1019.1
20171215143255 9 185 1.0 3.0 0.00 0.00 0.00 88 1019.2
20171215141747 9 193 1.0 3.0 0.00 0.00 0.00 88 1019.2
20171215140247 8 193 0.0 3.0 0.00 0.00 0.00 88 1019.1
20171215134738 6 189 1.0 3.0 0.00 0.00 0.00 88 1019.0
20171215133236 5 193 1.0 3.0 0.00 0.00 0.00 88 1018.9
20171215131730 3 181 2.0 4.0 0.00 0.00 0.00 87 1018.7
20171215130225 2 249 1.0 2.0 0.00 0.00 0.00 87 1018.8
20171215124729 2 249 0.0 2.0 0.00 0.00 0.00 87 1018.7
20171215123244 1 249 0.0 1.0 0.00 0.00 0.00 87 1018.6
20171215121729 1 249 1.0 2.0 0.00 0.00 0.00 87 1018.4
20171215120256 1 249 0.0 2.0 0.00 0.00 0.00 87 1018.3
20171215114710 2 249 1.0 2.0 0.00 0.00 0.00 87 1018.2
20171215113201 2 249 0.0 2.0 0.00 0.00 0.00 87 1018.2
20171215111655 2 354 0.0 0.0 0.00 0.00 0.00 87 1018.1
20171215110231 3 354 0.0 0.0 0.00 0.00 0.00 87 1018.0
20171215104657 2 354 0.0 0.0 0.00 0.00 0.00 87 1017.9
20171215103157 3 354 0.0 0.0 0.00 0.00 0.00 88 1017.9
20171215101639 3 350 0.0 2.0 0.00 0.00 0.00 88 1017.7
20171215100143 4 349 0.0 2.0 0.00 0.00 0.00 88 1017.8
20171215094640 4 341 0.0 3.0 0.00 0.00 0.00 88 1017.8
20171215093125 3 316 2.0 4.0 0.00 0.00 0.00 87 1017.7
20171215091630 3 212 1.0 3.0 0.00 0.00 0.00 88 1017.5
20171215090317 3 212 2.0 5.0 0.00 0.00 0.00 87 1017.4
20171215084613 2 191 3.0 4.0 0.00 0.00 0.00 87 1017.3
20171215083119 3 237 2.0 3.0 0.00 0.00 0.00 87 1017.4
20171215081609 3 238 3.0 4.0 0.00 0.00 0.00 87 1017.2
20171215080112 3 247 0.0 2.0 0.00 0.00 0.00 88 1017.1
20171215074559 3 221 1.0 3.0 0.00 0.00 0.00 88 1017.1
20171215073100 3 187 1.0 3.0 0.00 0.00 0.00 88 1017.0
20171215071601 4 185 2.0 3.0 0.00 0.00 0.00 88 1016.9
20171215070059 3 173 3.0 4.0 0.00 0.00 0.00 88 1016.6
20171215064540 3 195 1.0 4.0 0.00 0.00 0.00 87 1016.4
20171215063042 3 224 1.0 4.0 0.00 0.00 0.00 87 1016.0
20171215061538 3 221 1.0 4.0 0.00 0.00 0.00 87 1015.7
20171215060053 4 283 1.0 3.0 0.00 0.00 0.00 86 1015.7
20171215054535 4 326 1.0 2.0 0.00 0.00 0.00 86 1015.7
20171215053024 4 242 1.0 4.0 0.00 0.00 0.00 86 1015.8
20171215051541 4 247 2.0 3.0 0.00 0.00 0.00 86 1015.8
20171215050048 4 281 1.0 3.0 0.00 0.00 0.00 86 1015.7
20171215044516 5 281 0.0 2.0 0.00 0.00 0.00 87 1015.5
20171215043021 4 226 0.0 3.0 0.00 0.00 0.00 86 1015.6
20171215041514 4 210 1.0 3.0 0.00 0.00 0.00 85 1015.6
20171215040014 5 218 1.0 3.0 0.00 0.00 0.00 85 1015.1
20171215034516 5 249 1.0 3.0 0.00 0.00 0.00 85 1015.2
20171215033012 4 253 2.0 4.0 0.00 0.00 0.00 83 1015.2
20171215031533 5 144 2.0 5.0 0.00 0.00 0.00 83 1014.8
20171215030004 5 267 1.0 4.0 0.00 0.00 0.00 83 1014.6
20171215024511 6 292 0.0 3.0 0.00 0.00 0.00 83 1014.5
20171215022959 6 270 1.0 3.0 0.00 0.00 0.00 82 1014.1
20171215021458 7 235 2.0 4.0 0.00 0.00 0.00 82 1013.9
20171215020001 6 222 3.0 5.0 0.00 0.00 0.00 80 1013.7
20171215014653 7 262 0.0 4.0 0.00 0.00 0.00 81 1013.4
20171215013026 8 245 2.0 5.0 0.00 0.00 0.00 80 1013.3
20171215011453 8 235 1.0 4.0 0.00 0.00 0.00 79 1013.2
20171215005944 9 213 1.0 4.0 0.00 0.00 0.00 78 1013.1
20171215004442 10 258 0.0 4.0 0.00 0.00 0.00 78 1012.9
20171215002941 9 252 2.0 4.0 0.00 0.00 0.00 77 1012.7
20171215001435 11 328 1.0 3.0 0.00 0.00 0.00 74 1012.4
20171214235931 12 300 0.0 3.0 0.00 0.00 0.00 73 1012.3
20171214234427 14 190 1.0 3.0 0.00 0.00 0.00 67 1011.8
20171214232937 13 220 0.0 6.0 0.00 0.00 0.00 67 1011.6
20171214231431 14 194 1.0 5.0 0.00 0.00 0.00 66 1011.6
20171214225927 15 186 2.0 6.0 0.00 0.00 0.00 67 1011.3
20171214224419 15 195 3.0 6.0 0.00 0.00 0.00 68 1010.9
20171214222918 15 186 3.0 4.0 0.00 0.00 0.00 61 1010.7
20171214221413 18 136 2.0 4.0 0.00 0.00 0.00 55 1010.3
20171214215920 18 195 2.0 4.0 0.00 0.00 0.00 57 1010.2
20171214214409 19 200 2.0 8.0 0.00 0.00 0.00 51 1009.9